Regional Weather Roundup
Issued by NWS

Home | Current Version | Previous Version | Graphics & Text | Print | Product List | Glossary On
Versions: 1 2 3 4 5 6 7 8 9 10 11 12 13 14 15 16 17 18 19 20 21 22 23 24 25 26 27 28 29 30 31 32 33 34 35 36 37 38 39 40 41 42 43 44 45 46 47 48 49 50
000
ASUS45 KCYS 281110
RWRWY

WYOMING REGIONAL WEATHER ROUNDUP
NATIONAL WEATHER SERVICE CHEYENNE WY
500 AM MDT WED SEP 28 2016

NOTE:  "FAIR" INDICATES FEW OR NO CLOUDS BELOW 12,000 FEET
WITH NO SIGNIFICANT WEATHER AND/OR OBSTRUCTIONS TO VISIBILITY.

WYZ001-281200-
YELLOWSTONE NATIONAL PARK

CITY           SKY/WX    TMP DP  RH WIND       PRES   REMARKS
LK YELLOWSTONE   N/A     31  31 100 NW3       30.41S
W YELLOWSTONE  NOT AVBL

$$
WYZ002>013-054>058-071-098>099-281200-
NORTHERN WYOMING

CITY           SKY/WX    TMP DP  RH WIND       PRES   REMARKS
JACKSON        FAIR      37  36  93 CALM      30.34S
CODY           FAIR      53  41  63 CALM      30.28R
GREYBULL       FAIR      49  47  93 CALM      30.22R
WORLAND        FAIR      46  43  89 SE7       30.23R
SHERIDAN       FAIR      45  40  82 CALM      30.22R
BUFFALO        FAIR      57  36  45 W10       30.27R
GILLETTE       FAIR      43  41  93 CALM      30.23R
HULETT         FAIR      46  41  81 S3        30.24R
NEWCASTLE      FAIR      48  37  66 N9        30.24R

$$
WYZ014>020-022>026-101>103-281200-
CENTRAL WYOMING

CITY           SKY/WX    TMP DP  RH WIND       PRES   REMARKS
BIG PINEY      FAIR      34  31  88 CALM      30.37R
PINEDALE       FAIR      32  32 100 NW6       30.37S WCI  26
DUBOIS         FAIR      39  32  75 NW10      30.39R WCI  32
LANDER         FAIR      54  35  48 SE3       30.29R
RIVERTON       FAIR      46  41  82 NW5       30.30R
CASPER         FAIR      41  37  86 NW3       30.29R
DOUGLAS        FAIR      40  37  89 NW5       30.28R

$$
WYZ021-027>030-104>119-281200-
SOUTHERN WYOMING

CITY           SKY/WX    TMP DP  RH WIND       PRES   REMARKS
EVANSTON       FAIR      53  35  50 CALM      30.33R
FORT BRIDGER   SUNNY     46  37  71 NW6       30.36S
ROCK SPRINGS   FAIR      49  36  61 NE6       30.33S
DIXON          FAIR      40  33  76 CALM      30.35S
RAWLINS        FAIR      36  29  75 N5        30.35S WCI  32
SARATOGA       FAIR      34  32  93 N3        30.36S
LARAMIE        FAIR      35  30  82 CALM      30.37R
CHEYENNE       FAIR      47  31  53 NW7       30.31R
TORRINGTON     FAIR      45  41  86 W5        30.22R
PINE BLUFFS    FAIR      39  34  81 W5        30.27R

$$



USA.gov is the U.S. government's official web portal to all federal, state and local government web resources and services.